Printer-friendly version

IAU Minor Planet Center

Minor Planet Center

C/2009 K3 (Beshore)

Orbital Elements

The following orbital elements are taken from MPC 66205:
C/2009 K3 (Beshore)
T 2011 Jan.  9.266 TT                                   MPC
q   3.90156              (2000.0)            P               Q
                   Peri.  251.413       -0.319181       +0.947694
                   Node     0.032       +0.933621       +0.314496
e   1.0            Incl.  146.680       -0.162711       -0.054484
From 20 observations 2009 May 26-28.
An explanation of the orbital elements is available.

These orbital elements are also available in forms suitable for loading into a number of popular planetarium-type software programs.


Ephemeris

The following ephemeris is at intervals of five days. A daily ephemeris covering the same time interval is also available.

Personalized ephemerides for this (and other) objects may be generated using the Minor Planet & Comet Ephemeris Service.

Recent magnitude estimates for this comet (as reported to the ICQ) may be available.

Date    TT    R. A. (2000) Decl.     Delta      r     Elong.  Phase   m1    m2

WARNING!

This comet gets close to the sun during the period covered in the ephemeris below. Observers are warned to be wary of observing comets near the sun. NEVER point any kind of optical instrument at the sun--instant blindness will be the probable result.

2009 10 26 11 50.63 -03 11.3 6.185 5.386 33.6 5.9 19.8 2009 10 31 11 51.43 -03 33.5 6.102 5.358 38.3 6.6 19.7 2009 11 05 11 52.08 -03 55.6 6.013 5.331 43.0 7.3 19.7 2009 11 10 11 52.56 -04 17.4 5.919 5.304 47.8 7.9 19.6 2009 11 15 11 52.85 -04 38.8 5.819 5.277 52.6 8.6 19.5 2009 11 20 11 52.93 -04 59.7 5.715 5.250 57.4 9.1 19.5 2009 11 25 11 52.77 -05 20.2 5.607 5.223 62.4 9.6 19.4 2009 11 30 11 52.34 -05 39.9 5.495 5.196 67.4 10.1 19.4 2009 12 05 11 51.61 -05 58.9 5.380 5.169 72.5 10.5 19.3 2009 12 10 11 50.55 -06 17.0 5.263 5.143 77.7 10.8 19.2 2009 12 15 11 49.14 -06 34.1 5.144 5.117 82.9 11.0 19.1 2009 12 20 11 47.34 -06 50.0 5.024 5.091 88.3 11.1 19.1 2009 12 25 11 45.12 -07 04.5 4.905 5.065 93.7 11.2 19.0 2009 12 30 11 42.46 -07 17.4 4.786 5.039 99.3 11.1 18.9 2010 01 04 11 39.32 -07 28.6 4.669 5.013 104.9 10.9 18.8 2010 01 09 11 35.69 -07 37.9 4.555 4.988 110.7 10.6 18.8 2010 01 14 11 31.54 -07 44.9 4.444 4.962 116.6 10.2 18.7 2010 01 19 11 26.86 -07 49.6 4.338 4.937 122.5 9.7 18.6 2010 01 24 11 21.66 -07 51.6 4.238 4.912 128.5 9.0 18.5 2010 01 29 11 15.93 -07 50.9 4.145 4.887 134.6 8.2 18.5 2010 02 03 11 09.71 -07 47.1 4.059 4.863 140.7 7.4 18.4 2010 02 08 11 03.01 -07 40.3 3.983 4.838 146.8 6.4 18.3 2010 02 13 10 55.90 -07 30.3 3.916 4.814 152.6 5.4 18.3 2010 02 18 10 48.43 -07 17.1 3.859 4.790 158.1 4.4 18.2 2010 02 23 10 40.69 -07 00.9 3.813 4.766 162.5 3.6 18.2 2010 02 28 10 32.76 -06 42.0 3.779 4.743 164.9 3.1 18.1 2010 03 05 10 24.74 -06 20.4 3.756 4.719 164.4 3.2 18.1 2010 03 10 10 16.73 -05 56.8 3.745 4.696 161.1 3.9 18.1 2010 03 15 10 08.84 -05 31.4 3.746 4.673 156.3 4.9 18.1 2010 03 20 10 01.15 -05 04.9 3.757 4.650 150.6 6.0 18.0 2010 03 25 09 53.76 -04 37.7 3.779 4.628 144.6 7.2 18.0 2010 03 30 09 46.74 -04 10.4 3.810 4.605 138.5 8.3 18.0 2010 04 04 09 40.15 -03 43.5 3.850 4.583 132.3 9.3 18.0 2010 04 09 09 34.03 -03 17.3 3.898 4.562 126.2 10.2 18.0 2010 04 14 09 28.42 -02 52.2 3.953 4.540 120.1 11.0 18.1 2010 04 19 09 23.32 -02 28.6 4.014 4.519 114.2 11.7 18.1 2010 04 24 09 18.76 -02 06.8 4.079 4.498 108.4 12.3 18.1 2010 04 29 09 14.71 -01 46.9 4.147 4.477 102.7 12.7 18.1 2010 05 04 09 11.16 -01 29.0 4.218 4.457 97.1 13.0 18.1 2010 05 09 09 08.10 -01 13.2 4.291 4.436 91.7 13.1 18.1 2010 05 14 09 05.51 -00 59.6 4.364 4.416 86.3 13.2 18.2 2010 05 19 09 03.35 -00 48.3 4.437 4.397 81.2 13.1 18.2 2010 05 24 09 01.60 -00 39.1 4.509 4.378 76.1 13.0 18.2 2010 05 29 09 00.22 -00 32.2 4.579 4.359 71.2 12.7 18.2 2010 06 03 08 59.19 -00 27.3 4.646 4.340 66.3 12.4 18.2 2010 06 08 08 58.47 -00 24.6 4.710 4.321 61.6 11.9 18.2 2010 06 13 08 58.05 -00 24.0 4.771 4.303 57.0 11.4 18.2 2010 06 18 08 57.88 -00 25.3 4.827 4.286 52.5 10.8 18.2 2010 06 23 08 57.94 -00 28.7 4.878 4.268 48.2 10.2 18.2 2010 06 28 08 58.21 -00 34.0 4.925 4.251 43.9 9.5 18.2 2010 07 03 08 58.65 -00 41.1 4.965 4.234 39.8 8.8 18.2 2010 07 08 08 59.25 -00 50.0 5.000 4.218 35.8 8.1 18.2 2010 07 13 08 59.98 -01 00.8 5.029 4.202 32.0 7.4 18.2 2010 07 18 09 00.83 -01 13.3 5.051 4.186 28.5 6.7 18.2 2010 07 23 09 01.75 -01 27.6 5.067 4.171 25.3 6.0 18.2 2010 07 28 09 02.74 -01 43.5 5.076 4.156 22.5 5.4 18.2 2010 08 02 09 03.78 -02 01.1 5.078 4.141 20.3 4.9 18.2 2010 08 07 09 04.84 -02 20.3 5.074 4.127 18.9 4.6 18.2 2010 08 12 09 05.90 -02 41.1 5.062 4.113 18.5 4.5 18.2 2010 08 17 09 06.93 -03 03.5 5.043 4.100 19.1 4.6 18.1 2010 08 22 09 07.93 -03 27.6 5.018 4.087 20.6 5.0 18.1 2010 08 27 09 08.86 -03 53.1 4.986 4.074 23.0 5.6 18.1 2010 09 01 09 09.70 -04 20.3 4.946 4.062 25.9 6.2 18.1 2010 09 06 09 10.44 -04 49.0 4.901 4.050 29.2 7.0 18.0 2010 09 11 09 11.04 -05 19.2 4.849 4.039 32.8 7.8 18.0 2010 09 16 09 11.47 -05 50.9 4.790 4.028 36.6 8.6 18.0 2010 09 21 09 11.71 -06 24.2 4.726 4.017 40.6 9.4 17.9 2010 09 26 09 11.72 -06 58.9 4.657 4.007 44.8 10.1 17.9 2010 10 01 09 11.49 -07 35.2 4.582 3.998 49.1 10.9 17.8 2010 10 06 09 10.96 -08 12.8 4.502 3.989 53.5 11.6 17.8 2010 10 11 09 10.10 -08 51.9 4.418 3.980 58.0 12.3 17.7 2010 10 16 09 08.88 -09 32.2 4.331 3.971 62.6 12.9 17.7 2010 10 21 09 07.24 -10 13.8 4.240 3.964 67.3 13.4 17.6 2010 10 26 09 05.14 -10 56.4 4.147 3.956 72.1 13.8 17.6 2010 10 31 09 02.54 -11 40.0 4.052 3.949 77.0 14.2 17.5 2010 11 05 08 59.38 -12 24.4 3.956 3.943 82.0 14.4 17.4 2010 11 10 08 55.61 -13 09.1 3.861 3.937 87.1 14.6 17.4 2010 11 15 08 51.18 -13 53.9 3.766 3.931 92.2 14.6 17.3 2010 11 20 08 46.04 -14 38.2 3.673 3.926 97.5 14.5 17.3 2010 11 25 08 40.16 -15 21.6 3.584 3.921 102.7 14.2 17.2 2010 11 30 08 33.49 -16 03.4 3.499 3.917 108.0 13.9 17.1

Valid HTML 4.01!